Location: Caltech
(34.1382°N, 118.1253°W)
Time: 09:06:27
(UTC-07:00)

Uosat F - Visible Passes

Search period start: 29 March 2015 00:00
Search period end: 08 April 2015 00:00
Orbit: 751 x 761 km, 98.7° (Epoch: 27 March)

Date Brightness Start Highest point End Pass type
(mag) Time Alt. Az. Time Alt. Az. Time Alt. Az.
29 Mar 13.4 04:49:13 10° NE 04:53:05 23° E 04:57:04 10° SSE visible
30 Mar 11.0 05:47:46 10° NNE 05:52:49 84° WNW 05:57:49 10° SSW visible
31 Mar 12.6 05:08:51 10° NNE 05:13:27 37° E 05:18:05 10° SSE visible
01 Apr 13.9 04:31:19 10° ENE 04:33:48 14° E 04:36:35 10° SE visible
01 Apr 11.3 06:08:06 10° N 06:12:59 52° WNW 06:17:49 10° SSW visible
02 Apr 11.6 05:28:47 10° NNE 05:33:45 60° E 05:38:41 10° S visible
03 Apr 13.4 04:50:22 10° NE 04:54:15 23° E 04:58:16 10° SSE visible
04 Apr 11.0 05:48:56 10° NNE 05:53:58 84° WNW 05:58:58 10° SSW visible
05 Apr 12.6 05:10:01 10° NNE 05:14:37 37° E 05:19:15 10° SSE visible
06 Apr 13.9 04:32:26 10° ENE 04:34:58 14° E 04:37:47 10° SE visible
07 Apr 11.6 05:29:57 10° NNE 05:34:54 61° E 05:39:50 10° S visible
